TimeEDT,TemperatureF,Dew PointF,Humidity,Sea Level PressureIn,VisibilityMPH,Wind Direction,Wind SpeedMPH,Gust SpeedMPH,PrecipitationIn,Events,Conditions,WindDirDegrees,DateUTC
12:53 AM,75.9,64.9,69,29.81,10.0,West,10.4,18.4,0.00,,Partly Cloudy,260,2013-06-26 04:53:00
1:53 AM,73.0,64.0,73,29.81,10.0,West,9.2,19.6,N/A,,Clear,270,2013-06-26 05:53:00
2:53 AM,72.0,64.0,76,29.82,10.0,West,8.1,-,N/A,,Clear,270,2013-06-26 06:53:00
3:53 AM,72.0,62.1,71,29.82,10.0,West,5.8,-,N/A,,Clear,280,2013-06-26 07:53:00
4:53 AM,71.1,62.1,73,29.83,10.0,WSW,4.6,-,N/A,,Clear,250,2013-06-26 08:53:00
5:53 AM,70.0,63.0,78,29.83,10.0,West,3.5,-,N/A,,Clear,260,2013-06-26 09:53:00
6:53 AM,70.0,64.0,81,29.85,10.0,SW,4.6,-,N/A,,Clear,220,2013-06-26 10:53:00
7:53 AM,73.0,64.0,73,29.86,10.0,SW,5.8,-,N/A,,Clear,230,2013-06-26 11:53:00
8:53 AM,75.9,64.0,67,29.86,10.0,West,8.1,-,N/A,,Clear,260,2013-06-26 12:53:00
9:53 AM,79.0,64.0,60,29.85,10.0,Variable,3.5,-,N/A,,Clear,0,2013-06-26 13:53:00
10:53 AM,80.1,64.0,58,29.85,10.0,West,5.8,-,N/A,,Clear,270,2013-06-26 14:53:00
11:53 AM,80.1,64.0,58,29.85,10.0,WSW,4.6,-,N/A,,Clear,240,2013-06-26 15:53:00
12:53 PM,84.0,66.0,55,29.85,10.0,WSW,8.1,-,N/A,,Clear,240,2013-06-26 16:53:00
1:53 PM,84.9,64.0,49,29.84,10.0,NW,10.4,-,N/A,,Clear,310,2013-06-26 17:53:00
2:53 PM,87.1,66.0,49,29.82,10.0,North,8.1,-,N/A,,Clear,350,2013-06-26 18:53:00
3:53 PM,88.0,66.9,49,29.79,10.0,NNW,4.6,-,N/A,,Clear,330,2013-06-26 19:53:00
4:53 PM,86.0,68.0,55,29.78,10.0,NNW,3.5,-,0.00,Rain,Light Rain,340,2013-06-26 20:53:00
5:53 PM,84.9,70.0,61,29.77,10.0,NW,5.8,-,0.00,,Mostly Cloudy,320,2013-06-26 21:53:00
6:53 PM,82.9,71.1,67,29.77,10.0,North,5.8,-,N/A,,Scattered Clouds,350,2013-06-26 22:53:00
7:53 PM,77.0,70.0,79,29.79,7.0,Calm,Calm,-,0.00,Rain,Light Rain,0,2013-06-26 23:53:00
8:01 PM,75.2,69.8,83,29.82,1.8,SW,12.7,-,0.08,Rain,Rain,230,2013-06-27 00:01:00
8:14 PM,73.4,69.8,88,29.81,3.0,South,9.2,-,0.17,Rain,Light Rain,190,2013-06-27 00:14:00
8:53 PM,72.0,68.0,87,29.80,10.0,Calm,Calm,-,0.20,,Mostly Cloudy,0,2013-06-27 00:53:00
9:02 PM,71.6,68.0,88,29.81,10.0,Calm,Calm,-,N/A,,Scattered Clouds,0,2013-06-27 01:02:00
9:53 PM,73.0,69.1,87,29.80,9.0,NW,3.5,-,0.01,Rain,Light Rain,320,2013-06-27 01:53:00
10:53 PM,73.0,70.0,90,29.81,8.0,South,3.5,-,0.00,,Clear,180,2013-06-27 02:53:00
11:53 PM,73.0,71.1,93,29.81,5.0,South,5.8,-,N/A,,Mostly Cloudy,180,2013-06-27 03:53:00